DECAYED
Showing default

STARLINER CALYPSO 1, 59968 (Decayed)

Orbit data source: Space-Track

STARLINER CALYPSO 1, 59968 was an American payload satellite in LEO that was launched on Wed, 05 Jun 2024 UTC via an ATLAS V N22 launch vehicle from the Air Force Eastern Test Range (AFETR). Payloads include a variety of satellites, spacecraft, and rockets equipped with specific instruments for various scientific and technological missions. These include communications satellites like Starlink; space stations such as the ISS; scientific satellites like the Hubble; Earth observation satellites from companies like Planet Labs, Umbra, and HawkEye 360; GPS; miniature CubeSats for education and research; and military/defense satellites.

Loading next visibility...
STARLINER CALYPSO 1 details
Identifier
59968, 2024-109A
Orbit
Decayed
Last TLE update5 months ago
Origin
Flag of USBOCC (US)
ManufacturerBoeing C3PF
MissionDecayed spacecraft
Bus & MotorCST-100, Unknown motor
Mass8,000 kg wet, 8,000 kg dry
Launch date (UTC)
2024-06-05 (8 months ago)
Launch vehicle
ATLAS V N22
Launch site
Air Force Eastern Test Range (AFETR)
Object type
Payload
Rocket body
Debris
Shape & HBRUnknown
Radar Cross SectionLarge (>1 m²)

Expand to show TLE details & history

TLE from 5 months ago
0 STARLINER CALYPSO 1
1 59968U 24109A   24253.87704602  .00012401  00000-0  23421-3 0  9996
2 59968  51.6395 255.8321 0007834 334.1073  94.7593 15.48815630471007
Epoch: 2024-09-09T21:02Z
Definitive object data (Epoch: 2024-09-09T21:02:56.776Z)
Latitude47.18903°
Longitude8.86614°
Altitude425.642 km
Speed7.662 km/s
True Right ascension20h 56m 00s
True Declination47° 00' 33"
Sunlit
Object was in full shadow at TLE epoch
Visualization TLE readout
Latitude51.02837°
Longitude1.18106°
Altitude413.068 km
Speed7.67 km/s
Apparent Right ascension01h 34m 04s
Apparent Declination18° 38' 54"
Sunlit
Object is in full shadow
Visualization observer readout
Local Sidereal Time17:27:44
Azimuth55.071° ENE
Elevation-10.105°
Doppler factor1
Orbital elements
Apogee altitude426.024 km
Perigee altitude415.371 km
Semi-major axis6,798.834 km
Eccentricity0.0007834
Inclination51.6395°
RAAN255.8321°
Arg. of periapsis334.1073°
True anomaly94.84875°
Mean anomaly94.7593°
Eccentric anomaly94.80403°
Mean motion3.87161 °/min
BSTAR0.00023421
Orbital period92.98 mins
Loading maneuver chart data...
Loading historical data...
Loading historical data...
Loading historical data...
Loading historical data...
Loading historical data...
Loading historical data...
Loading historical data...
Other satellites on launch #109 in the year 2024 (2024-06-05 UTC)

STARLINER CALYPSO 1 Visibility forecast

Observer location: undefined°, undefined

Span
Click to sort rows by Start time (UTC) header in descending order
Start Az.
Max El. time (UTC)
Max El. Az.
Max El.
End time (UTC)
End Az.
4 mins2025-02-12 19:38:33.865Z330.235° NNW2025-02-12 19:40:33.865Z55.998° ENE34.451°2025-02-12 19:42:33.865Z103.111° ESE
5 mins2025-02-13 13:54:33.865Z263.339° W2025-02-13 13:56:33.865Z330.947° NNW34.577°2025-02-13 13:59:33.865Z41.47° NE
|